When you browse on this site, cookies collect data to enhance your experience and personalize the content and advertising you see.
Visit our Privacy Policy to learn more. By continuing to use the site, you agree to this use of cookies and data.
  • In Spain
  • List of Countries
  • For 7 days
  • Water Temperature
  • Weather Map
  • Weather Widgets
  • user-avatar
    Login

    Hourly Weather Cervinia

    Today, 14 November, Thursday

    Time Temperature Precipitation Wind Pressure Humidity
    00:00 -4°C° 0 mm 2 mps 660 mmHg 60%
    01:00 -4°C° 0 mm 2 mps 660 mmHg 65%
    02:00 -5°C° 0 mm 3 mps 660 mmHg 70%
    03:00 -5°C° 0 mm 3 mps 660 mmHg 75%
    04:00 -5°C° 0 mm 3 mps 660 mmHg 78%
    05:00 -5°C° 0 mm 3 mps 660 mmHg 81%
    06:00 -6°C° 0 mm 3 mps 660 mmHg 84%
    07:00 -4°C° 0 mm 3 mps 660 mmHg 84%
    08:00 -2°C° 0 mm 3 mps 661 mmHg 85%
    09:00 -2°C° 0 mm 4 mps 661 mmHg 85%
    10:00 -1°C° 0.1 mm 4 mps 661 mmHg 86%
    11:00 -1°C° 0.1 mm 4 mps 660 mmHg 87%
    12:00 0°C° 0.1 mm 4 mps 660 mmHg 88%
    13:00 0°C° 1 mm 5 mps 659 mmHg 90%
    14:00 0°C° 1 mm 5 mps 659 mmHg 91%
    15:00 0°C° 1 mm 5 mps 658 mmHg 93%
    16:00 0°C° 2.4 mm 4 mps 658 mmHg 94%
    17:00 -1°C° 2.4 mm 4 mps 658 mmHg 94%
    18:00 -1°C° 2.4 mm 4 mps 657 mmHg 94%
    19:00 -1°C° 4.9 mm 4 mps 657 mmHg 95%
    20:00 0°C° 4.9 mm 5 mps 656 mmHg 95%
    21:00 0°C° 4.9 mm 5 mps 656 mmHg 96%
    22:00 0°C° 6 mm 4 mps 656 mmHg 96%
    23:00 0°C° 6 mm 4 mps 656 mmHg 96%

    Tomorrow, 15 November, Friday

    Time Temperature Precipitation Wind Pressure Humidity
    00:00 0°C° 6 mm 4 mps 655 mmHg 96%
    01:00 +1°C° 1.7 mm 3 mps 656 mmHg 96%
    02:00 +1°C° 1.7 mm 3 mps 656 mmHg 96%
    03:00 +1°C° 1.7 mm 3 mps 656 mmHg 95%
    04:00 0°C° 0.3 mm 3 mps 656 mmHg 95%
    05:00 0°C° 0.3 mm 3 mps 657 mmHg 95%
    06:00 +1°C° 0.3 mm 2 mps 658 mmHg 96%
    07:00 +1°C° 0 mm 2 mps 658 mmHg 94%
    08:00 +2°C° 0 mm 2 mps 658 mmHg 92%
    09:00 +3°C° 0 mm 1 mps 659 mmHg 91%
    10:00 +4°C° 0.1 mm 1 mps 659 mmHg 91%
    11:00 +3°C° 0.1 mm 2 mps 659 mmHg 91%
    12:00 +3°C° 0.1 mm 2 mps 659 mmHg 91%
    13:00 +3°C° 0 mm 2 mps 659 mmHg 92%
    14:00 +2°C° 0 mm 2 mps 659 mmHg 94%
    15:00 +3°C° 0 mm 1 mps 658 mmHg 95%
    16:00 +1°C° 0 mm 2 mps 659 mmHg 94%
    17:00 -1°C° 0 mm 2 mps 659 mmHg 92%
    18:00 -2°C° 0 mm 2 mps 659 mmHg 91%
    19:00 -2°C° 0.1 mm 2 mps 660 mmHg 92%
    20:00 -2°C° 0.1 mm 2 mps 660 mmHg 92%
    21:00 -2°C° 0.1 mm 2 mps 660 mmHg 93%
    22:00 -2°C° 0.5 mm 2 mps 661 mmHg 93%
    23:00 -2°C° 0.5 mm 2 mps 661 mmHg 94%

    Day after tomorrow, 16 November, Saturday

    Time Temperature Precipitation Wind Pressure Humidity
    00:00 -2°C° 0.5 mm 2 mps 661 mmHg 95%
    01:00 -2°C° 0.5 mm 2 mps 661 mmHg 95%
    02:00 -2°C° 0.5 mm 2 mps 662 mmHg 95%
    03:00 -2°C° 0.5 mm 2 mps 662 mmHg 95%
    04:00 -2°C° 0.4 mm 2 mps 662 mmHg 94%
    05:00 -3°C° 0.4 mm 2 mps 663 mmHg 94%
    06:00 -3°C° 0.4 mm 2 mps 663 mmHg 94%
    07:00 -2°C° 0.4 mm 2 mps 664 mmHg 94%
    08:00 -1°C° 0.4 mm 2 mps 665 mmHg 94%
    09:00 +1°C° 0.4 mm 2 mps 665 mmHg 93%
    10:00 +2°C° 0.2 mm 2 mps 666 mmHg 93%
    11:00 +2°C° 0.2 mm 2 mps 666 mmHg 92%
    12:00 +3°C° 0.2 mm 2 mps 666 mmHg 91%
    13:00 +2°C° 0 mm 2 mps 666 mmHg 92%
    14:00 +2°C° 0 mm 1 mps 665 mmHg 93%
    15:00 +1°C° 0 mm 1 mps 665 mmHg 94%
    16:00 0°C° 0 mm 1 mps 665 mmHg 90%
    17:00 -1°C° 0 mm 1 mps 665 mmHg 85%
    18:00 -4°C° 0 mm 2 mps 665 mmHg 81%
    19:00 -4°C° 0 mm 2 mps 665 mmHg 78%
    20:00 -4°C° 0 mm 2 mps 665 mmHg 76%
    21:00 -3°C° 0 mm 1 mps 665 mmHg 73%
    22:00 -2°C° 0 mm 1 mps 664 mmHg 70%
    23:00 -1°C° 0 mm 1 mps 664 mmHg 66%

    17 November, Sunday

    Time Temperature Precipitation Wind Pressure Humidity
    00:00 -1°C° 0 mm 1 mps 664 mmHg 63%
    01:00 0°C° 0 mm 1 mps 663 mmHg 62%
    02:00 0°C° 0 mm 1 mps 663 mmHg 60%
    03:00 -1°C° 0 mm 2 mps 662 mmHg 59%
    04:00 +1°C° 0.6 mm 1 mps 662 mmHg 64%
    05:00 +2°C° 0.6 mm 1 mps 661 mmHg 69%
    06:00 +2°C° 0.6 mm 1 mps 661 mmHg 75%
    07:00 +3°C° 2.3 mm 1 mps 661 mmHg 81%
    08:00 +2°C° 2.3 mm 2 mps 660 mmHg 87%
    09:00 +3°C° 2.3 mm 2 mps 660 mmHg 93%
    10:00 +4°C° 4.9 mm 1 mps 660 mmHg 95%
    11:00 +4°C° 4.9 mm 1 mps 660 mmHg 96%
    12:00 +5°C° 4.9 mm 1 mps 659 mmHg 97%
    13:00 +5°C° 2.9 mm 1 mps 660 mmHg 97%
    14:00 +5°C° 2.9 mm 1 mps 660 mmHg 97%
    15:00 +4°C° 2.9 mm 2 mps 660 mmHg 97%
    16:00 +3°C° 2 mm 2 mps 660 mmHg 97%
    17:00 +3°C° 2 mm 2 mps 660 mmHg 97%
    18:00 +3°C° 2 mm 2 mps 661 mmHg 97%
    19:00 +3°C° 1.4 mm 2 mps 661 mmHg 97%
    20:00 +2°C° 1.4 mm 2 mps 661 mmHg 97%
    21:00 +3°C° 1.4 mm 1 mps 661 mmHg 97%
    22:00 +3°C° 1.7 mm 1 mps 661 mmHg 97%
    23:00 +3°C° 1.7 mm 1 mps 661 mmHg 97%

    18 November, Monday

    Time Temperature Precipitation Wind Pressure Humidity
    00:00 +3°C° 1.7 mm 1 mps 661 mmHg 97%
    01:00 +3°C° 0.7 mm 1 mps 661 mmHg 97%
    02:00 +3°C° 0.7 mm 1 mps 661 mmHg 97%
    03:00 +2°C° 0.7 mm 1 mps 661 mmHg 97%
    04:00 +2°C° 0.6 mm 1 mps 661 mmHg 97%
    05:00 +2°C° 0.6 mm 1 mps 661 mmHg 97%
    06:00 +2°C° 0.6 mm 1 mps 661 mmHg 97%
    07:00 +2°C° 0.6 mm 1 mps 662 mmHg 96%
    08:00 +3°C° 0.6 mm 1 mps 662 mmHg 96%
    09:00 +3°C° 0.6 mm 1 mps 663 mmHg 95%
    10:00 +3°C° 0.5 mm 1 mps 663 mmHg 95%
    11:00 +4°C° 0.5 mm 1 mps 663 mmHg 95%
    12:00 +4°C° 0.5 mm 1 mps 663 mmHg 95%
    13:00 +4°C° 0.4 mm 1 mps 663 mmHg 95%
    14:00 +4°C° 0.4 mm 1 mps 664 mmHg 95%
    15:00 +3°C° 0.4 mm 1 mps 664 mmHg 95%
    16:00 +2°C° 0.1 mm 1 mps 664 mmHg 94%
    17:00 +1°C° 0.1 mm 1 mps 664 mmHg 93%
    18:00 -1°C° 0.1 mm 1 mps 664 mmHg 91%
    19:00 -1°C° 0 mm 1 mps 664 mmHg 90%
    20:00 -2°C° 0 mm 1 mps 664 mmHg 88%
    21:00 -3°C° 0 mm 1 mps 665 mmHg 87%
    22:00 -3°C° 0 mm 1 mps 665 mmHg 85%
    23:00 -3°C° 0 mm 1 mps 665 mmHg 84%

    19 November, Tuesday

    Time Temperature Precipitation Wind Pressure Humidity
    00:00 -3°C° 0 mm 1 mps 665 mmHg 83%
    01:00 -3°C° 0 mm 1 mps 665 mmHg 83%
    02:00 -3°C° 0 mm 1 mps 665 mmHg 82%
    03:00 -3°C° 0 mm 1 mps 665 mmHg 82%
    04:00 -3°C° 0 mm 1 mps 665 mmHg 81%
    05:00 -3°C° 0 mm 1 mps 666 mmHg 80%
    06:00 -4°C° 0 mm 1 mps 666 mmHg 79%
    07:00 -2°C° 0 mm 1 mps 666 mmHg 79%
    08:00 0°C° 0 mm 1 mps 667 mmHg 80%
    09:00 +2°C° 0 mm 1 mps 668 mmHg 81%
    10:00 +3°C° 0 mm 1 mps 667 mmHg 81%
    11:00 +3°C° 0 mm 1 mps 667 mmHg 81%
    12:00 +4°C° 0 mm 1 mps 667 mmHg 81%
    13:00 +4°C° 0 mm 1 mps 667 mmHg 83%
    14:00 +3°C° 0 mm 1 mps 666 mmHg 84%
    15:00 +1°C° 0 mm 0 mps 666 mmHg 86%
    16:00 +1°C° 0 mm 1 mps 666 mmHg 82%
    17:00 0°C° 0 mm 1 mps 666 mmHg 78%
    18:00 -4°C° 0 mm 2 mps 666 mmHg 74%
    19:00 -3°C° 0 mm 2 mps 666 mmHg 76%
    20:00 -3°C° 0 mm 2 mps 666 mmHg 78%
    21:00 -3°C° 0 mm 2 mps 666 mmHg 80%
    22:00 -3°C° 0 mm 2 mps 666 mmHg 83%
    23:00 -3°C° 0 mm 2 mps 666 mmHg 85%
    Show more